This is the latest recevied weather packets stored in our database for station/object N9WHM. If no packets are shown the sender has not sent any weather packets the latest 10 day(s).
| Time | Temp. | Humidity | Pressure | Rain* | Wind** | Luminosity | Snow |
|---|---|---|---|---|---|---|---|
| 1778155623 | 5° C | 73% | 1011.7 hPa | 0 mm | - | 39 W/m² | - |
| 1778155320 | 4.44° C | 73% | 1011.6 hPa | 0 mm | - | 32 W/m² | - |
| 1778155016 | 4.44° C | 73% | 1011.5 hPa | 0 mm | - | 25 W/m² | - |
| 1778154712 | 4.44° C | 73% | 1011.4 hPa | 0 mm | - | 21 W/m² | - |
| 1778154408 | 3.89° C | 73% | 1011.6 hPa | 0 mm | - | 17 W/m² | - |
| 1778154105 | 4.44° C | 72% | 1011.4 hPa | 0 mm | - | 13 W/m² | - |
| 1778153803 | 4.44° C | 72% | 1011.4 hPa | 0 mm | - | 9 W/m² | - |
| 1778153499 | 3.89° C | 72% | 1011.2 hPa | 0 mm | - | 7 W/m² | - |
| 1778153198 | 3.89° C | 72% | 1011.5 hPa | 0 mm | - | 6 W/m² | - |
| 1778152894 | 3.89° C | 72% | 1011.5 hPa | 0 mm | - | 4 W/m² | - |
| 1778152591 | 3.89° C | 72% | 1011.2 hPa | 0 mm | - | 3 W/m² | - |
| 1778152288 | 3.89° C | 71% | 1011.2 hPa | 0 mm | - | 2 W/m² | - |
| 1778151984 | 3.89° C | 72% | 1011.4 hPa | 0 mm | - | 1 W/m² | - |
| 1778151681 | 3.89° C | 71% | 1011.4 hPa | 0 mm | - | 0 W/m² | - |
| 1778151378 | 3.89° C | 71% | 1011.2 hPa | 0 mm | - | 0 W/m² | - |
| 1778151073 | 3.33° C | 72% | 1011.2 hPa | 0 mm | - | 0 W/m² | - |
| 1778150771 | 3.33° C | 72% | 1011.6 hPa | 0 mm | - | 0 W/m² | - |
| 1778150467 | 3.33° C | 72% | 1011.4 hPa | 0 mm | - | 0 W/m² | - |
| 1778150163 | 3.33° C | 71% | 1011.6 hPa | 0 mm | - | 0 W/m² | - |
| 1778149861 | 3.33° C | 69% | 1011.4 hPa | 0 mm | - | 0 W/m² | - |
| 1778149557 | 3.89° C | 69% | 1011.5 hPa | 0 mm | - | 0 W/m² | - |
| 1778149253 | 3.89° C | 68% | 1011.6 hPa | 0 mm | - | 0 W/m² | - |
| 1778148948 | 3.33° C | 68% | 1011.7 hPa | 0 mm | - | 0 W/m² | - |
| 1778148645 | 3.33° C | 67% | 1011.6 hPa | 0 mm | - | 0 W/m² | - |
| 1778148342 | 3.33° C | 68% | 1011.6 hPa | 0 mm | - | 0 W/m² | - |
* Rain latest hour (hover to see other rain measurements)
** Current wind speed in m/s (hover to see current wind gust speed)